When you browse on this site, cookies collect data to enhance your experience and personalize the content and advertising you see.
Visit our Privacy Policy to learn more. By continuing to use the site, you agree to this use of cookies and data.
  • In Hungary
  • List of Countries
  • For 7 days
  • Water Temperature
  • Satellite Maps
  • Weather Map
  • News
  • Weather Widgets
  • user-avatar
    Login

    Hourly Weather Tetlanohcan

    Today, 17 February, Sunday

    Time Temperature Precipitation Wind Pressure Humidity
    00:00 +15°C° 0 mm 1 mps 568 mmHg 36%
    01:00 +15°C° 0 mm 1 mps 568 mmHg 36%
    02:00 +14°C° 0 mm 1 mps 567 mmHg 36%
    03:00 +14°C° 0 mm 1 mps 567 mmHg 37%
    04:00 +13°C° 0 mm 1 mps 567 mmHg 39%
    05:00 +13°C° 0 mm 1 mps 567 mmHg 26%
    06:00 +14°C° 0 mm 1 mps 568 mmHg 28%
    07:00 +15°C° 0 mm 1 mps 569 mmHg 29%
    08:00 +17°C° 0 mm 2 mps 570 mmHg 31%
    09:00 +19°C° 0 mm 2 mps 570 mmHg 28%
    10:00 +21°C° 0 mm 3 mps 571 mmHg 25%
    11:00 +24°C° 0 mm 3 mps 572 mmHg 22%
    12:00 +25°C° 0 mm 4 mps 572 mmHg 21%
    13:00 +25°C° 0 mm 4 mps 572 mmHg 20%
    14:00 +26°C° 0 mm 4 mps 571 mmHg 19%
    15:00 +25°C° 0 mm 4 mps 571 mmHg 22%
    16:00 +23°C° 0 mm 4 mps 571 mmHg 25%
    17:00 +22°C° 0 mm 4 mps 570 mmHg 28%
    18:00 +20°C° 0 mm 3 mps 570 mmHg 32%
    19:00 +18°C° 0 mm 2 mps 570 mmHg 37%
    20:00 +18°C° 0 mm 1 mps 570 mmHg 41%
    21:00 +16°C° 0 mm 1 mps 570 mmHg 43%
    22:00 +15°C° 0 mm 1 mps 570 mmHg 46%
    23:00 +14°C° 0 mm 0 mps 570 mmHg 48%

    Tomorrow, 18 February, Monday

    Time Temperature Precipitation Wind Pressure Humidity
    00:00 +13°C° 0 mm 0 mps 569 mmHg 51%
    01:00 +13°C° 0 mm 0 mps 569 mmHg 53%
    02:00 +12°C° 0 mm 0 mps 569 mmHg 56%
    03:00 +12°C° 0 mm 0 mps 568 mmHg 58%
    04:00 +11°C° 0 mm 0 mps 568 mmHg 60%
    05:00 +12°C° 0 mm 1 mps 568 mmHg 61%
    06:00 +13°C° 0 mm 0 mps 569 mmHg 55%
    07:00 +14°C° 0 mm 0 mps 571 mmHg 49%
    08:00 +16°C° 0 mm 0 mps 572 mmHg 43%
    09:00 +19°C° 0 mm 2 mps 573 mmHg 36%
    10:00 +21°C° 0 mm 3 mps 574 mmHg 30%
    11:00 +23°C° 0 mm 4 mps 574 mmHg 23%
    12:00 +25°C° 0 mm 4 mps 574 mmHg 23%
    13:00 +25°C° 0 mm 5 mps 573 mmHg 23%
    14:00 +24°C° 0 mm 6 mps 573 mmHg 23%
    15:00 +23°C° 0 mm 5 mps 572 mmHg 25%
    16:00 +22°C° 0 mm 5 mps 572 mmHg 28%
    17:00 +21°C° 0 mm 4 mps 571 mmHg 31%
    18:00 +19°C° 0.2 mm 3 mps 571 mmHg 35%
    19:00 +18°C° 0.2 mm 2 mps 571 mmHg 38%
    20:00 +16°C° 0.2 mm 1 mps 571 mmHg 41%
    21:00 +16°C° 0.1 mm 1 mps 571 mmHg 45%
    22:00 +15°C° 0.1 mm 1 mps 570 mmHg 48%
    23:00 +15°C° 0.1 mm 1 mps 570 mmHg 52%

    Day after tomorrow, 19 February, Tuesday

    Time Temperature Precipitation Wind Pressure Humidity
    00:00 +14°C° 0 mm 1 mps 570 mmHg 59%
    01:00 +13°C° 0 mm 1 mps 569 mmHg 66%
    02:00 +13°C° 0 mm 1 mps 568 mmHg 73%
    03:00 +12°C° 0 mm 1 mps 568 mmHg 72%
    04:00 +12°C° 0 mm 1 mps 568 mmHg 70%
    05:00 +11°C° 0 mm 1 mps 568 mmHg 69%
    06:00 +13°C° 0 mm 2 mps 569 mmHg 62%
    07:00 +14°C° 0 mm 2 mps 570 mmHg 55%
    08:00 +16°C° 0 mm 3 mps 571 mmHg 47%
    09:00 +18°C° 0 mm 4 mps 571 mmHg 41%
    10:00 +19°C° 0 mm 5 mps 572 mmHg 34%
    11:00 +21°C° 0 mm 6 mps 573 mmHg 28%
    12:00 +22°C° 0 mm 6 mps 572 mmHg 24%
    13:00 +22°C° 0 mm 7 mps 571 mmHg 21%
    14:00 +22°C° 0 mm 7 mps 571 mmHg 18%
    15:00 +21°C° 0 mm 6 mps 570 mmHg 20%
    16:00 +20°C° 0 mm 6 mps 570 mmHg 21%
    17:00 +19°C° 0 mm 5 mps 569 mmHg 23%
    18:00 +18°C° 0 mm 4 mps 569 mmHg 26%
    19:00 +16°C° 0 mm 3 mps 569 mmHg 29%
    20:00 +15°C° 0 mm 2 mps 569 mmHg 32%
    21:00 +14°C° 0 mm 1 mps 568 mmHg 35%
    22:00 +14°C° 0 mm 1 mps 568 mmHg 37%
    23:00 +13°C° 0 mm 1 mps 568 mmHg 39%

    20 February, Wednesday

    Time Temperature Precipitation Wind Pressure Humidity
    00:00 +13°C° 0 mm 1 mps 567 mmHg 41%
    01:00 +12°C° 0 mm 1 mps 567 mmHg 43%
    02:00 +11°C° 0 mm 1 mps 566 mmHg 45%
    03:00 +11°C° 0 mm 1 mps 566 mmHg 46%
    04:00 +11°C° 0 mm 1 mps 566 mmHg 47%
    05:00 +10°C° 0 mm 1 mps 565 mmHg 48%
    06:00 +12°C° 0 mm 1 mps 567 mmHg 44%
    07:00 +13°C° 0 mm 1 mps 568 mmHg 41%
    08:00 +14°C° 0 mm 2 mps 569 mmHg 37%
    09:00 +16°C° 0 mm 2 mps 570 mmHg 32%
    10:00 +19°C° 0 mm 3 mps 570 mmHg 28%
    11:00 +21°C° 0 mm 4 mps 571 mmHg 23%
    12:00 +21°C° 0 mm 5 mps 571 mmHg 21%
    13:00 +22°C° 0 mm 5 mps 570 mmHg 20%
    14:00 +22°C° 0 mm 6 mps 570 mmHg 18%
    15:00 +21°C° 0 mm 6 mps 569 mmHg 20%
    16:00 +20°C° 0 mm 6 mps 569 mmHg 22%
    17:00 +19°C° 0 mm 6 mps 568 mmHg 24%
    18:00 +16°C° 0 mm 5 mps 568 mmHg 27%
    19:00 +15°C° 0 mm 4 mps 568 mmHg 29%
    20:00 +13°C° 0 mm 3 mps 568 mmHg 32%
    21:00 +14°C° 0 mm 2 mps 568 mmHg 34%
    22:00 +13°C° 0 mm 2 mps 568 mmHg 35%
    23:00 +13°C° 0 mm 2 mps 568 mmHg 36%

    21 February, Thursday

    Time Temperature Precipitation Wind Pressure Humidity
    00:00 +12°C° 0 mm 2 mps 567 mmHg 37%
    01:00 +10°C° 0 mm 2 mps 566 mmHg 38%
    02:00 +10°C° 0 mm 2 mps 566 mmHg 40%
    03:00 +9°C° 0 mm 2 mps 566 mmHg 41%
    04:00 +10°C° 0 mm 1 mps 566 mmHg 42%
    05:00 +9°C° 0 mm 1 mps 566 mmHg 44%
    06:00 +11°C° 0 mm 1 mps 567 mmHg 41%
    07:00 +13°C° 0 mm 2 mps 568 mmHg 37%
    08:00 +14°C° 0 mm 2 mps 570 mmHg 34%
    09:00 +17°C° 0 mm 2 mps 570 mmHg 29%
    10:00 +19°C° 0 mm 3 mps 571 mmHg 25%
    11:00 +21°C° 0 mm 4 mps 572 mmHg 20%
    12:00 +22°C° 0 mm 5 mps 571 mmHg 18%
    13:00 +22°C° 0 mm 5 mps 571 mmHg 17%
    14:00 +23°C° 0 mm 5 mps 571 mmHg 16%
    15:00 +22°C° 0 mm 5 mps 570 mmHg 17%
    16:00 +21°C° 0 mm 5 mps 570 mmHg 19%
    17:00 +20°C° 0 mm 5 mps 569 mmHg 20%
    18:00 +18°C° 0 mm 4 mps 569 mmHg 24%
    19:00 +16°C° 0 mm 3 mps 569 mmHg 28%
    20:00 +14°C° 0 mm 2 mps 568 mmHg 31%
    21:00 +14°C° 0 mm 1 mps 568 mmHg 33%
    22:00 +13°C° 0 mm 1 mps 568 mmHg 35%
    23:00 +12°C° 0 mm 0 mps 568 mmHg 36%

    22 February, Friday

    Time Temperature Precipitation Wind Pressure Humidity
    00:00 +11°C° 0 mm 0 mps 567 mmHg 37%
    01:00 +11°C° 0 mm 0 mps 567 mmHg 38%
    02:00 +10°C° 0 mm 0 mps 567 mmHg 39%
    03:00 +11°C° 0 mm 1 mps 567 mmHg 40%
    04:00 +10°C° 0 mm 1 mps 567 mmHg 42%
    05:00 +10°C° 0 mm 1 mps 567 mmHg 43%
    06:00 +12°C° 0 mm 1 mps 568 mmHg 39%
    07:00 +14°C° 0 mm 1 mps 569 mmHg 35%
    08:00 +15°C° 0 mm 1 mps 571 mmHg 30%
    09:00 +19°C° 0 mm 1 mps 571 mmHg 26%
    10:00 +20°C° 0 mm 2 mps 572 mmHg 21%
    11:00 +22°C° 0 mm 3 mps 573 mmHg 17%
    12:00 +24°C° 0 mm 3 mps 573 mmHg 17%
    13:00 +23°C° 0 mm 4 mps 572 mmHg 16%
    14:00 +25°C° 0 mm 5 mps 572 mmHg 16%
    15:00 +23°C° 0 mm 5 mps 571 mmHg 19%
    16:00 +21°C° 0 mm 5 mps 571 mmHg 22%
    17:00 +20°C° 0 mm 5 mps 570 mmHg 25%
    18:00 +19°C° 0 mm 4 mps 570 mmHg 28%
    19:00 +17°C° 0 mm 3 mps 570 mmHg 32%
    20:00 +15°C° 0 mm 1 mps 570 mmHg 35%
    21:00 +15°C° 0 mm 1 mps 569 mmHg 37%
    22:00 +14°C° 0 mm 1 mps 569 mmHg 39%
    23:00 +13°C° 0 mm 0 mps 569 mmHg 41%
    Show more